Time,TemperatureF,DewpointF,PressureIn,WindDirection,WindDirectionDegrees,WindSpeedMPH,WindSpeedGustMPH,Humidity,HourlyPrecipIn,Conditions,Clouds,dailyrainin,SoftwareType,DateUTC
2013-06-19 00:01:00,81.0,76.1,29.92,SW,225,4.3,4.3,85,0.00,,,0.00,WUHU216HW,2013-06-19 04:01:00,
2013-06-19 00:06:00,80.8,75.9,29.92,SW,225,2.0,4.5,85,0.00,,,0.00,WUHU216HW,2013-06-19 04:06:00,
2013-06-19 00:11:00,80.8,75.9,29.92,WSW,248,1.8,4.5,85,0.00,,,0.00,WUHU216HW,2013-06-19 04:11:00,
2013-06-19 00:16:00,81.0,76.1,29.92,WSW,248,3.4,4.0,85,0.00,,,0.00,WUHU216HW,2013-06-19 04:16:00,
2013-06-19 00:21:00,80.8,75.9,29.92,WSW,248,4.0,4.0,85,0.00,,,0.00,WUHU216HW,2013-06-19 04:21:00,
2013-06-19 00:26:00,81.0,76.1,29.92,SW,225,3.4,4.9,85,0.00,,,0.00,WUHU216HW,2013-06-19 04:26:00,
2013-06-19 00:31:00,81.0,76.1,29.92,WSW,248,2.5,5.1,85,0.00,,,0.00,WUHU216HW,2013-06-19 04:31:00,
2013-06-19 00:36:00,81.0,76.1,29.92,SW,225,2.2,5.1,85,0.00,,,0.00,WUHU216HW,2013-06-19 04:36:00,
2013-06-19 00:41:00,81.0,76.1,29.92,WSW,248,1.6,4.0,85,0.00,,,0.00,WUHU216HW,2013-06-19 04:41:00,
2013-06-19 00:46:00,81.0,76.1,29.91,West,270,1.6,2.9,85,0.00,,,0.00,WUHU216HW,2013-06-19 04:46:00,
2013-06-19 00:51:00,81.0,76.1,29.91,West,270,1.6,3.8,85,0.00,,,0.00,WUHU216HW,2013-06-19 04:51:00,
2013-06-19 00:56:00,81.0,76.1,29.91,SW,225,3.4,4.3,85,0.00,,,0.00,WUHU216HW,2013-06-19 04:56:00,
2013-06-19 01:01:00,81.0,76.1,29.91,SW,225,2.0,4.3,85,0.00,,,0.00,WUHU216HW,2013-06-19 05:01:00,
2013-06-19 01:06:00,81.0,76.4,29.90,WSW,248,1.8,3.6,86,0.00,,,0.00,WUHU216HW,2013-06-19 05:06:00,
2013-06-19 01:11:00,81.0,76.4,29.91,SW,225,1.8,3.6,86,0.00,,,0.00,WUHU216HW,2013-06-19 05:11:00,
2013-06-19 01:16:00,81.0,76.4,29.91,West,270,1.6,3.4,86,0.00,,,0.00,WUHU216HW,2013-06-19 05:16:00,
2013-06-19 01:21:00,81.0,76.1,29.91,WSW,248,3.4,4.0,85,0.00,,,0.00,WUHU216HW,2013-06-19 05:21:00,
2013-06-19 01:26:00,81.0,76.1,29.90,WSW,248,2.5,4.0,85,0.00,,,0.00,WUHU216HW,2013-06-19 05:26:00,
2013-06-19 01:31:00,81.0,76.4,29.90,SW,225,3.4,4.3,86,0.00,,,0.00,WUHU216HW,2013-06-19 05:31:00,
2013-06-19 01:36:00,81.0,76.1,29.90,WSW,248,1.8,4.3,85,0.00,,,0.00,WUHU216HW,2013-06-19 05:36:00,
2013-06-19 01:41:00,81.0,76.4,29.90,SW,225,2.7,4.7,86,0.00,,,0.00,WUHU216HW,2013-06-19 05:41:00,
2013-06-19 01:46:00,81.0,76.4,29.90,SW,225,3.4,4.7,86,0.00,,,0.00,WUHU216HW,2013-06-19 05:46:00,
2013-06-19 01:51:00,81.0,76.1,29.90,SW,225,2.5,3.4,85,0.00,,,0.00,WUHU216HW,2013-06-19 05:51:00,
2013-06-19 01:56:00,81.0,76.1,29.90,WSW,248,2.5,3.1,85,0.00,,,0.00,WUHU216HW,2013-06-19 05:56:00,
2013-06-19 02:01:00,81.0,76.1,29.90,WSW,248,2.0,3.4,85,0.00,,,0.00,WUHU216HW,2013-06-19 06:01:00,
2013-06-19 02:06:00,81.0,76.4,29.90,SW,225,1.8,3.4,86,0.00,,,0.00,WUHU216HW,2013-06-19 06:06:00,
2013-06-19 02:11:00,81.0,76.4,29.91,WSW,248,0.9,2.5,86,0.00,,,0.00,WUHU216HW,2013-06-19 06:11:00,
2013-06-19 02:16:00,81.0,76.4,29.91,SW,225,1.3,3.8,86,0.00,,,0.00,WUHU216HW,2013-06-19 06:16:00,
2013-06-19 02:21:00,81.2,76.6,29.91,WSW,248,2.2,3.8,86,0.00,,,0.00,WUHU216HW,2013-06-19 06:21:00,
2013-06-19 02:26:00,81.2,76.6,29.91,SW,225,1.8,3.4,86,0.00,,,0.00,WUHU216HW,2013-06-19 06:26:00,
2013-06-19 02:31:00,81.2,76.6,29.90,West,270,2.0,2.7,86,0.00,,,0.00,WUHU216HW,2013-06-19 06:31:00,
2013-06-19 02:36:00,81.4,76.8,29.90,WSW,248,1.8,4.3,86,0.00,,,0.00,WUHU216HW,2013-06-19 06:36:00,
2013-06-19 02:41:00,81.4,76.8,29.90,WSW,248,1.3,4.3,86,0.00,,,0.00,WUHU216HW,2013-06-19 06:41:00,
2013-06-19 02:46:00,81.4,76.4,29.90,WSW,248,1.1,2.9,85,0.00,,,0.00,WUHU216HW,2013-06-19 06:46:00,
2013-06-19 02:51:00,81.4,76.4,29.91,SW,225,3.1,3.1,85,0.00,,,0.00,WUHU216HW,2013-06-19 06:51:00,
2013-06-19 02:56:00,81.4,76.1,29.90,WSW,248,1.8,3.1,84,0.00,,,0.00,WUHU216HW,2013-06-19 06:56:00,
2013-06-19 03:01:00,81.2,75.5,29.91,WSW,248,0.4,2.9,83,0.00,,,0.00,WUHU216HW,2013-06-19 07:01:00,
2013-06-19 03:06:00,81.2,75.3,29.90,WSW,248,1.8,2.2,82,0.00,,,0.00,WUHU216HW,2013-06-19 07:06:00,
2013-06-19 03:11:00,81.2,75.3,29.90,WSW,248,1.8,2.2,82,0.00,,,0.00,WUHU216HW,2013-06-19 07:11:00,
2013-06-19 03:16:00,81.0,75.1,29.90,SW,225,1.1,1.8,82,0.00,,,0.00,WUHU216HW,2013-06-19 07:16:00,
2013-06-19 03:21:00,81.0,75.1,29.90,SW,225,1.1,2.2,82,0.00,,,0.00,WUHU216HW,2013-06-19 07:21:00,
2013-06-19 03:26:00,81.0,74.7,29.90,SW,225,0.4,2.2,81,0.00,,,0.00,WUHU216HW,2013-06-19 07:26:00,
2013-06-19 03:31:00,80.8,74.5,29.90,WSW,248,1.3,1.8,81,0.00,,,0.00,WUHU216HW,2013-06-19 07:31:00,
2013-06-19 03:36:00,80.6,74.4,29.90,WSW,248,0.4,1.8,81,0.00,,,0.00,WUHU216HW,2013-06-19 07:36:00,
2013-06-19 03:41:00,80.6,74.4,29.91,WSW,248,1.1,1.6,81,0.00,,,0.00,WUHU216HW,2013-06-19 07:41:00,
2013-06-19 03:46:00,80.5,74.2,29.91,West,270,0.9,3.4,81,0.00,,,0.00,WUHU216HW,2013-06-19 07:46:00,
2013-06-19 03:51:00,80.5,74.2,29.91,SW,225,0.9,3.4,81,0.00,,,0.00,WUHU216HW,2013-06-19 07:51:00,
2013-06-19 03:56:00,80.3,73.6,29.90,WSW,248,1.8,1.8,80,0.00,,,0.00,WUHU216HW,2013-06-19 07:56:00,
2013-06-19 04:01:00,80.3,74.0,29.91,WSW,248,2.2,2.2,81,0.00,,,0.00,WUHU216HW,2013-06-19 08:01:00,
2013-06-19 04:06:00,80.1,73.8,29.90,WSW,248,0.4,2.2,81,0.00,,,0.00,WUHU216HW,2013-06-19 08:06:00,
2013-06-19 04:11:00,80.1,73.4,29.90,SW,225,0.7,1.1,80,0.00,,,0.00,WUHU216HW,2013-06-19 08:11:00,
2013-06-19 04:16:00,79.9,73.3,29.90,WSW,248,1.8,1.8,80,0.00,,,0.00,WUHU216HW,2013-06-19 08:16:00,
2013-06-19 04:21:00,79.9,73.3,29.91,SW,225,0.9,1.8,80,0.00,,,0.00,WUHU216HW,2013-06-19 08:21:00,
2013-06-19 04:26:00,79.7,73.5,29.91,SW,225,0.0,1.1,81,0.00,,,0.00,WUHU216HW,2013-06-19 08:26:00,
2013-06-19 04:31:00,79.6,73.3,29.91,SW,225,0.0,1.1,81,0.00,,,0.00,WUHU216HW,2013-06-19 08:31:00,
2013-06-19 04:36:00,79.6,73.3,29.91,SW,225,0.0,0.4,81,0.00,,,0.00,WUHU216HW,2013-06-19 08:36:00,
2013-06-19 04:41:00,79.6,73.3,29.91,SW,225,0.0,0.0,81,0.00,,,0.00,WUHU216HW,2013-06-19 08:41:00,
2013-06-19 04:46:00,79.4,73.1,29.91,SW,225,0.7,0.7,81,0.00,,,0.00,WUHU216HW,2013-06-19 08:46:00,
2013-06-19 04:51:00,79.4,73.1,29.91,SW,225,0.2,0.7,81,0.00,,,0.00,WUHU216HW,2013-06-19 08:51:00,
2013-06-19 04:56:00,79.2,72.9,29.91,WSW,248,0.9,0.9,81,0.00,,,0.00,WUHU216HW,2013-06-19 08:56:00,
2013-06-19 05:01:00,79.2,72.9,29.91,SW,225,1.1,1.1,81,0.00,,,0.00,WUHU216HW,2013-06-19 09:01:00,
2013-06-19 05:06:00,79.2,72.9,29.91,SW,225,1.1,1.8,81,0.00,,,0.00,WUHU216HW,2013-06-19 09:06:00,
2013-06-19 05:11:00,79.0,72.7,29.91,WSW,248,0.4,2.0,81,0.00,,,0.00,WUHU216HW,2013-06-19 09:11:00,
2013-06-19 05:16:00,79.0,72.7,29.91,SW,225,0.4,2.0,81,0.00,,,0.00,WUHU216HW,2013-06-19 09:16:00,
2013-06-19 05:21:00,79.0,72.7,29.92,SW,225,1.1,1.8,81,0.00,,,0.00,WUHU216HW,2013-06-19 09:21:00,
2013-06-19 05:26:00,79.0,72.7,29.92,WSW,248,0.7,1.1,81,0.00,,,0.00,WUHU216HW,2013-06-19 09:26:00,
2013-06-19 05:31:00,78.8,72.5,29.92,WSW,248,0.2,1.1,81,0.00,,,0.00,WUHU216HW,2013-06-19 09:31:00,
2013-06-19 05:36:00,78.8,72.5,29.92,SW,225,0.4,1.6,81,0.00,,,0.00,WUHU216HW,2013-06-19 09:36:00,
2013-06-19 05:41:00,78.8,72.5,29.92,SW,225,1.1,1.6,81,0.00,,,0.00,WUHU216HW,2013-06-19 09:41:00,
2013-06-19 05:46:00,78.8,72.9,29.92,WSW,248,0.4,1.1,82,0.00,,,0.00,WUHU216HW,2013-06-19 09:46:00,
2013-06-19 05:51:00,78.8,72.9,29.92,WSW,248,0.0,0.9,82,0.00,,,0.00,WUHU216HW,2013-06-19 09:51:00,
2013-06-19 05:56:00,78.8,72.9,29.92,SW,225,0.4,0.7,82,0.00,,,0.00,WUHU216HW,2013-06-19 09:56:00,
2013-06-19 06:01:00,78.8,72.9,29.92,WSW,248,1.3,1.3,82,0.00,,,0.00,WUHU216HW,2013-06-19 10:01:00,
2013-06-19 06:06:00,78.8,72.9,29.92,SW,225,0.4,1.3,82,0.00,,,0.00,WUHU216HW,2013-06-19 10:06:00,
2013-06-19 06:11:00,78.7,72.7,29.92,SW,225,0.7,0.7,82,0.00,,,0.00,WUHU216HW,2013-06-19 10:11:00,
2013-06-19 06:16:00,78.7,72.7,29.92,WSW,248,0.0,1.1,82,0.00,,,0.00,WUHU216HW,2013-06-19 10:16:00,
2013-06-19 06:21:00,78.7,72.7,29.92,WSW,248,0.0,1.1,82,0.00,,,0.00,WUHU216HW,2013-06-19 10:21:00,
2013-06-19 06:26:00,78.7,72.7,29.92,WSW,248,0.0,0.2,82,0.00,,,0.00,WUHU216HW,2013-06-19 10:26:00,
2013-06-19 06:31:00,78.7,72.7,29.92,WSW,248,0.4,0.4,82,0.00,,,0.00,WUHU216HW,2013-06-19 10:31:00,
2013-06-19 06:36:00,78.5,72.5,29.92,WSW,248,0.2,0.4,82,0.00,,,0.00,WUHU216HW,2013-06-19 10:36:00,
2013-06-19 06:41:00,78.5,72.5,29.93,WSW,248,0.0,0.7,82,0.00,,,0.00,WUHU216HW,2013-06-19 10:41:00,
2013-06-19 06:46:00,78.5,72.9,29.93,WSW,248,0.0,0.7,83,0.00,,,0.00,WUHU216HW,2013-06-19 10:46:00,
2013-06-19 06:51:00,78.5,72.9,29.93,WSW,248,0.0,0.0,83,0.00,,,0.00,WUHU216HW,2013-06-19 10:51:00,
2013-06-19 06:56:00,78.5,72.9,29.94,WSW,248,0.0,0.0,83,0.00,,,0.00,WUHU216HW,2013-06-19 10:56:00,
2013-06-19 07:01:00,78.3,73.1,29.94,WSW,248,0.0,0.0,84,0.00,,,0.00,WUHU216HW,2013-06-19 11:01:00,
2013-06-19 07:06:00,78.1,72.9,29.94,WSW,248,0.0,0.0,84,0.00,,,0.00,WUHU216HW,2013-06-19 11:06:00,
2013-06-19 07:11:00,78.1,72.9,29.94,WSW,248,0.0,0.0,84,0.00,,,0.00,WUHU216HW,2013-06-19 11:11:00,
2013-06-19 07:16:00,78.1,73.3,29.95,WSW,248,0.0,0.2,85,0.00,,,0.00,WUHU216HW,2013-06-19 11:16:00,
2013-06-19 07:21:00,78.1,73.3,29.95,WSW,248,1.1,1.1,85,0.00,,,0.00,WUHU216HW,2013-06-19 11:21:00,
2013-06-19 07:25:00,78.1,73.3,29.95,WSW,248,0.4,1.1,85,0.00,,,0.00,WUHU216HW,2013-06-19 11:25:00,
2013-06-19 07:30:00,78.1,73.3,29.95,SW,225,1.1,1.1,85,0.00,,,0.00,WUHU216HW,2013-06-19 11:30:00,
2013-06-19 07:35:00,78.1,73.3,29.95,WSW,248,2.5,3.1,85,0.00,,,0.00,WUHU216HW,2013-06-19 11:35:00,
2013-06-19 07:40:00,78.1,73.3,29.96,WSW,248,2.5,3.4,85,0.00,,,0.00,WUHU216HW,2013-06-19 11:40:00,
2013-06-19 07:45:00,77.9,73.1,29.96,SW,225,1.6,3.4,85,0.00,,,0.00,WUHU216HW,2013-06-19 11:45:00,
2013-06-19 07:50:00,77.9,73.1,29.97,SW,225,3.1,3.1,85,0.00,,,0.00,WUHU216HW,2013-06-19 11:50:00,
2013-06-19 07:55:00,77.8,72.9,29.97,SW,225,2.0,3.4,85,0.00,,,0.00,WUHU216HW,2013-06-19 11:55:00,
2013-06-19 08:00:00,77.8,72.9,29.97,WSW,248,2.5,3.4,85,0.00,,,0.00,WUHU216HW,2013-06-19 12:00:00,
2013-06-19 08:05:00,77.6,72.4,29.97,SW,225,1.1,2.5,84,0.00,,,0.00,WUHU216HW,2013-06-19 12:05:00,
2013-06-19 08:10:00,77.4,72.2,29.97,WSW,248,0.4,2.5,84,0.00,,,0.00,WUHU216HW,2013-06-19 12:10:00,
2013-06-19 08:15:00,77.4,71.8,29.97,WSW,248,0.4,1.8,83,0.00,,,0.00,WUHU216HW,2013-06-19 12:15:00,
2013-06-19 08:20:00,77.2,71.6,29.97,SW,225,0.0,1.1,83,0.00,,,0.00,WUHU216HW,2013-06-19 12:20:00,
2013-06-19 08:25:00,77.2,71.6,29.96,SW,225,0.0,0.9,83,0.00,,,0.00,WUHU216HW,2013-06-19 12:25:00,
2013-06-19 08:30:00,77.2,71.6,29.96,WSW,248,0.0,0.4,83,0.00,,,0.00,WUHU216HW,2013-06-19 12:30:00,
2013-06-19 08:35:00,77.2,72.0,29.96,WSW,248,0.0,0.4,84,0.00,,,0.00,WUHU216HW,2013-06-19 12:35:00,
2013-06-19 08:40:00,77.4,72.2,29.96,WSW,248,0.0,0.0,84,0.00,,,0.00,WUHU216HW,2013-06-19 12:40:00,
2013-06-19 08:45:00,77.4,72.2,29.96,WSW,248,0.0,0.4,84,0.00,,,0.00,WUHU216HW,2013-06-19 12:45:00,
2013-06-19 08:50:00,77.8,72.9,29.97,NNW,338,0.7,0.9,85,0.00,,,0.00,WUHU216HW,2013-06-19 12:50:00,
2013-06-19 08:55:00,77.9,73.1,29.96,WNW,293,0.0,0.9,85,0.00,,,0.00,WUHU216HW,2013-06-19 12:55:00,
2013-06-19 09:00:00,78.1,73.3,29.97,NNW,338,0.0,0.4,85,0.00,,,0.00,WUHU216HW,2013-06-19 13:00:00,
2013-06-19 09:05:00,78.5,73.3,29.97,NW,315,0.4,0.4,84,0.00,,,0.00,WUHU216HW,2013-06-19 13:05:00,
2013-06-19 09:10:00,78.7,73.4,29.97,SW,225,1.1,1.1,84,0.00,,,0.00,WUHU216HW,2013-06-19 13:10:00,
2013-06-19 09:15:00,78.8,73.6,29.97,WNW,293,0.0,1.1,84,0.00,,,0.00,WUHU216HW,2013-06-19 13:15:00,
2013-06-19 09:20:00,78.8,73.6,29.97,NW,315,0.4,0.4,84,0.00,,,0.00,WUHU216HW,2013-06-19 13:20:00,
2013-06-19 09:25:00,79.0,73.8,29.97,NW,315,0.9,1.1,84,0.00,,,0.00,WUHU216HW,2013-06-19 13:25:00,
2013-06-19 09:30:00,79.6,74.0,29.97,WNW,293,0.2,1.3,83,0.00,,,0.00,WUHU216HW,2013-06-19 13:30:00,
2013-06-19 09:35:00,79.6,74.0,29.97,SW,225,0.7,1.3,83,0.00,,,0.00,WUHU216HW,2013-06-19 13:35:00,
2013-06-19 09:40:00,79.7,74.2,29.97,NW,315,0.0,0.9,83,0.00,,,0.00,WUHU216HW,2013-06-19 13:40:00,
2013-06-19 09:45:00,79.9,74.4,29.97,SW,225,0.7,1.3,83,0.00,,,0.00,WUHU216HW,2013-06-19 13:45:00,
2013-06-19 09:50:00,80.1,74.2,29.96,WNW,293,0.7,1.3,82,0.00,,,0.00,WUHU216HW,2013-06-19 13:50:00,
2013-06-19 09:55:00,80.3,74.4,29.96,West,270,0.0,1.1,82,0.00,,,0.00,WUHU216HW,2013-06-19 13:55:00,
2013-06-19 10:00:00,80.3,74.4,29.96,SW,225,1.6,1.6,82,0.00,,,0.00,WUHU216HW,2013-06-19 14:00:00,
2013-06-19 10:05:00,80.6,74.7,29.96,West,270,0.4,2.2,82,0.00,,,0.00,WUHU216HW,2013-06-19 14:05:00,
2013-06-19 10:10:00,80.8,74.5,29.96,West,270,0.9,2.2,81,0.00,,,0.00,WUHU216HW,2013-06-19 14:10:00,
2013-06-19 10:15:00,81.0,74.7,29.96,NW,315,0.4,1.3,81,0.00,,,0.00,WUHU216HW,2013-06-19 14:15:00,
2013-06-19 10:20:00,81.2,74.5,29.96,WNW,293,0.4,1.1,80,0.00,,,0.00,WUHU216HW,2013-06-19 14:20:00,
2013-06-19 10:25:00,81.4,74.4,29.97,WNW,293,0.4,1.8,79,0.00,,,0.00,WUHU216HW,2013-06-19 14:25:00,
2013-06-19 10:30:00,81.5,74.4,29.97,WNW,293,2.0,2.0,79,0.00,,,0.00,WUHU216HW,2013-06-19 14:30:00,
2013-06-19 10:35:00,81.7,74.6,29.97,NNW,338,0.4,2.0,79,0.00,,,0.00,WUHU216HW,2013-06-19 14:35:00,
2013-06-19 10:40:00,81.9,74.8,29.97,NW,315,0.4,1.1,79,0.00,,,0.00,WUHU216HW,2013-06-19 14:40:00,
2013-06-19 10:45:00,81.9,74.8,29.97,NW,315,0.2,1.1,79,0.00,,,0.00,WUHU216HW,2013-06-19 14:45:00,
2013-06-19 10:50:00,82.1,75.0,29.97,SW,225,0.9,1.8,79,0.00,,,0.00,WUHU216HW,2013-06-19 14:50:00,
2013-06-19 10:55:00,82.4,75.0,29.97,WSW,248,1.3,2.0,78,0.00,,,0.00,WUHU216HW,2013-06-19 14:55:00,
2013-06-19 11:00:00,82.4,75.3,29.97,WNW,293,0.7,2.0,79,0.00,,,0.00,WUHU216HW,2013-06-19 15:00:00,
2013-06-19 11:05:00,82.6,75.2,29.98,WNW,293,1.1,1.1,78,0.00,,,0.00,WUHU216HW,2013-06-19 15:05:00,
2013-06-19 11:10:00,82.8,74.9,29.98,NW,315,1.6,1.6,77,0.00,,,0.00,WUHU216HW,2013-06-19 15:10:00,
2013-06-19 11:15:00,83.0,75.1,29.98,NW,315,1.8,1.8,77,0.00,,,0.00,WUHU216HW,2013-06-19 15:15:00,
2013-06-19 11:20:00,83.2,74.8,29.98,NW,315,0.2,1.8,76,0.00,,,0.00,WUHU216HW,2013-06-19 15:20:00,
2013-06-19 11:25:00,83.3,75.3,29.98,West,270,0.9,1.6,77,0.00,,,0.00,WUHU216HW,2013-06-19 15:25:00,
2013-06-19 11:30:00,83.3,75.3,29.98,NW,315,0.4,1.6,77,0.00,,,0.00,WUHU216HW,2013-06-19 15:30:00,
2013-06-19 11:35:00,83.5,75.5,29.98,NW,315,0.4,1.6,77,0.00,,,0.00,WUHU216HW,2013-06-19 15:35:00,
2013-06-19 11:40:00,83.5,75.5,29.98,NW,315,1.6,2.0,77,0.00,,,0.00,WUHU216HW,2013-06-19 15:40:00,
2013-06-19 11:45:00,83.9,75.5,29.98,NNW,338,0.0,2.0,76,0.00,,,0.00,WUHU216HW,2013-06-19 15:45:00,
2013-06-19 11:50:00,83.9,75.5,29.98,WNW,293,0.0,1.8,76,0.00,,,0.00,WUHU216HW,2013-06-19 15:50:00,
2013-06-19 11:55:00,83.9,75.5,29.98,NW,315,0.9,1.6,76,0.00,,,0.00,WUHU216HW,2013-06-19 15:55:00,
2013-06-19 12:00:00,84.2,75.8,29.98,NW,315,1.6,1.6,76,0.00,,,0.00,WUHU216HW,2013-06-19 16:00:00,
2013-06-19 12:05:00,84.4,75.6,29.98,NNW,338,0.9,1.6,75,0.00,,,0.00,WUHU216HW,2013-06-19 16:05:00,
2013-06-19 12:10:00,84.6,75.8,29.98,NW,315,0.2,0.9,75,0.00,,,0.00,WUHU216HW,2013-06-19 16:10:00,
2013-06-19 12:15:00,84.8,76.3,29.98,NW,315,1.1,1.1,76,0.00,,,0.00,WUHU216HW,2013-06-19 16:15:00,
2013-06-19 12:20:00,85.0,76.1,29.98,WNW,293,0.9,1.1,75,0.00,,,0.00,WUHU216HW,2013-06-19 16:20:00,
2013-06-19 12:25:00,85.1,76.0,29.98,West,270,0.4,1.6,74,0.00,,,0.00,WUHU216HW,2013-06-19 16:25:00,
2013-06-19 12:30:00,85.7,76.5,29.98,NNW,338,0.4,1.6,74,0.00,,,0.00,WUHU216HW,2013-06-19 16:30:00,
2013-06-19 12:35:00,86.0,76.4,29.98,NW,315,0.9,1.3,73,0.00,,,0.00,WUHU216HW,2013-06-19 16:35:00,
2013-06-19 12:40:00,85.9,76.2,29.97,SW,225,0.4,1.8,73,0.00,,,0.00,WUHU216HW,2013-06-19 16:40:00,
2013-06-19 12:45:00,86.0,76.4,29.97,NW,315,0.9,1.8,73,0.00,,,0.00,WUHU216HW,2013-06-19 16:45:00,
2013-06-19 12:50:00,86.4,76.8,29.97,NW,315,0.9,1.3,73,0.00,,,0.00,WUHU216HW,2013-06-19 16:50:00,
2013-06-19 12:55:00,86.6,76.5,29.97,NW,315,0.7,1.8,72,0.00,,,0.00,WUHU216HW,2013-06-19 16:55:00,
2013-06-19 13:00:00,86.4,76.3,29.97,NW,315,0.0,1.8,72,0.00,,,0.00,WUHU216HW,2013-06-19 17:00:00,
2013-06-19 13:05:00,86.4,76.3,29.97,WNW,293,1.1,1.1,72,0.00,,,0.00,WUHU216HW,2013-06-19 17:05:00,
2013-06-19 13:10:00,86.4,76.8,29.97,NW,315,0.0,1.1,73,0.00,,,0.00,WUHU216HW,2013-06-19 17:10:00,
2013-06-19 13:15:00,86.0,76.1,29.97,WNW,293,0.7,0.9,72,0.00,,,0.00,WUHU216HW,2013-06-19 17:15:00,
2013-06-19 13:20:00,85.9,75.9,29.96,NW,315,0.0,1.1,72,0.00,,,0.00,WUHU216HW,2013-06-19 17:20:00,
2013-06-19 13:25:00,85.7,75.7,29.96,West,270,0.0,1.1,72,0.00,,,0.00,WUHU216HW,2013-06-19 17:25:00,
2013-06-19 13:30:00,85.7,76.1,29.96,ESE,113,1.6,1.6,73,0.00,,,0.00,WUHU216HW,2013-06-19 17:30:00,
2013-06-19 13:35:00,85.9,76.7,29.96,SW,225,0.4,1.6,74,0.00,,,0.00,WUHU216HW,2013-06-19 17:35:00,
2013-06-19 13:40:00,86.0,76.4,29.95,ESE,113,0.4,0.4,73,0.00,,,0.00,WUHU216HW,2013-06-19 17:40:00,
2013-06-19 13:45:00,86.0,76.9,29.96,NW,315,0.4,2.5,74,0.00,,,0.00,WUHU216HW,2013-06-19 17:45:00,
2013-06-19 13:50:00,85.5,76.3,29.96,WSW,248,2.5,2.5,74,0.00,,,0.00,WUHU216HW,2013-06-19 17:50:00,
2013-06-19 13:55:00,85.1,76.0,29.96,WSW,248,3.8,3.8,74,0.00,,,0.00,WUHU216HW,2013-06-19 17:55:00,
2013-06-19 14:00:00,84.6,75.8,29.96,ENE,68,0.2,3.8,75,0.00,,,0.00,WUHU216HW,2013-06-19 18:00:00,
2013-06-19 14:05:00,83.9,75.5,29.97,WSW,248,1.3,3.6,76,0.00,,,0.00,WUHU216HW,2013-06-19 18:05:00,
2013-06-19 14:10:00,83.5,75.2,29.96,WSW,248,0.4,1.8,76,0.00,,,0.00,WUHU216HW,2013-06-19 18:10:00,
2013-06-19 14:15:00,82.8,74.4,29.96,West,270,0.4,2.0,76,0.01,,,0.00,WUHU216HW,2013-06-19 18:15:00,
2013-06-19 14:20:00,82.1,73.8,29.96,WSW,248,0.0,2.0,76,0.05,,,0.05,WUHU216HW,2013-06-19 18:20:00,
2013-06-19 14:25:00,81.4,73.1,29.96,WSW,248,0.7,2.0,76,0.05,,,0.05,WUHU216HW,2013-06-19 18:25:00,
2013-06-19 14:30:00,80.5,73.0,29.96,WSW,248,0.7,2.0,78,0.05,,,0.05,WUHU216HW,2013-06-19 18:30:00,
2013-06-19 14:35:00,80.3,73.3,29.96,WSW,248,1.1,1.3,79,0.05,,,0.05,WUHU216HW,2013-06-19 18:35:00,
2013-06-19 14:40:00,79.9,73.3,29.97,WSW,248,1.1,2.7,80,0.06,,,0.07,WUHU216HW,2013-06-19 18:40:00,
2013-06-19 14:45:00,79.7,73.5,29.96,NE,45,0.4,2.7,81,0.12,,,0.12,WUHU216HW,2013-06-19 18:45:00,
2013-06-19 14:50:00,79.4,73.8,29.96,WSW,248,2.5,2.5,83,0.12,,,0.12,WUHU216HW,2013-06-19 18:50:00,
2013-06-19 14:55:00,79.0,73.8,29.96,WSW,248,2.9,2.9,84,0.12,,,0.12,WUHU216HW,2013-06-19 18:55:00,
2013-06-19 15:00:00,78.3,72.7,29.96,WSW,248,1.8,5.4,83,0.13,,,0.14,WUHU216HW,2013-06-19 19:00:00,
2013-06-19 15:05:00,77.8,72.2,29.96,SW,225,1.1,5.4,83,0.13,,,0.14,WUHU216HW,2013-06-19 19:05:00,
2013-06-19 15:10:00,77.4,71.8,29.96,West,270,0.0,2.2,83,0.13,,,0.14,WUHU216HW,2013-06-19 19:10:00,
2013-06-19 15:15:00,77.4,71.8,29.95,WSW,248,2.0,2.0,83,0.14,,,0.14,WUHU216HW,2013-06-19 19:15:00,
2013-06-19 15:20:00,77.0,71.5,29.95,WSW,248,0.9,2.5,83,0.10,,,0.16,WUHU216HW,2013-06-19 19:20:00,
2013-06-19 15:25:00,77.0,71.8,29.95,WSW,248,0.4,2.5,84,0.10,,,0.16,WUHU216HW,2013-06-19 19:25:00,
2013-06-19 15:30:00,76.9,71.6,29.94,SW,225,0.7,1.3,84,0.10,,,0.16,WUHU216HW,2013-06-19 19:30:00,
2013-06-19 15:35:00,77.0,72.2,29.94,WSW,248,1.1,1.1,85,0.10,,,0.16,WUHU216HW,2013-06-19 19:35:00,
2013-06-19 15:40:00,77.0,72.2,29.95,WSW,248,0.0,1.1,85,0.04,,,0.16,WUHU216HW,2013-06-19 19:40:00,
2013-06-19 15:45:00,77.0,72.2,29.95,WSW,248,0.4,0.7,85,0.03,,,0.16,WUHU216HW,2013-06-19 19:45:00,
2013-06-19 15:50:00,77.0,72.2,29.95,WSW,248,0.4,1.1,85,0.03,,,0.16,WUHU216HW,2013-06-19 19:50:00,
2013-06-19 15:55:00,77.0,72.5,29.95,WSW,248,0.0,1.1,86,0.02,,,0.16,WUHU216HW,2013-06-19 19:55:00,
2013-06-19 16:00:00,77.0,72.5,29.95,WSW,248,0.0,0.2,86,0.02,,,0.16,WUHU216HW,2013-06-19 20:00:00,
2013-06-19 16:05:00,77.0,72.5,29.96,WSW,248,0.0,0.2,86,0.02,,,0.16,WUHU216HW,2013-06-19 20:05:00,
2013-06-19 16:10:00,77.0,72.9,29.97,East,90,0.9,0.9,87,0.02,,,0.16,WUHU216HW,2013-06-19 20:10:00,
2013-06-19 16:15:00,77.0,72.9,29.97,NNW,338,0.0,1.1,87,0.00,,,0.16,WUHU216HW,2013-06-19 20:15:00,
2013-06-19 16:20:00,76.9,72.7,29.98,SW,225,0.0,2.2,87,0.00,,,0.16,WUHU216HW,2013-06-19 20:20:00,
2013-06-19 16:25:00,76.7,72.5,29.98,WNW,293,1.6,2.5,87,0.00,,,0.16,WUHU216HW,2013-06-19 20:25:00,
2013-06-19 16:30:00,76.3,72.2,29.99,NNW,338,0.0,4.7,87,0.00,,,0.16,WUHU216HW,2013-06-19 20:30:00,
2013-06-19 16:35:00,76.0,71.8,29.99,ENE,68,0.0,4.7,87,0.00,,,0.16,WUHU216HW,2013-06-19 20:35:00,
2013-06-19 16:40:00,76.0,71.8,29.99,East,90,1.6,1.8,87,0.07,,,0.23,WUHU216HW,2013-06-19 20:40:00,
2013-06-19 16:45:00,75.6,71.5,29.99,NE,45,0.0,3.4,87,0.07,,,0.23,WUHU216HW,2013-06-19 20:45:00,
2013-06-19 16:50:00,75.4,71.4,29.98,East,90,2.9,3.4,87,0.07,,,0.23,WUHU216HW,2013-06-19 20:50:00,
2013-06-19 16:55:00,75.2,71.2,29.98,East,90,0.0,2.9,87,0.08,,,0.24,WUHU216HW,2013-06-19 20:55:00,
2013-06-19 17:00:00,75.2,71.2,29.97,East,90,1.6,2.5,87,0.08,,,0.24,WUHU216HW,2013-06-19 21:00:00,
2013-06-19 17:05:00,75.2,71.2,29.98,ENE,68,0.0,1.6,87,0.08,,,0.24,WUHU216HW,2013-06-19 21:05:00,
2013-06-19 17:10:00,75.1,71.3,29.98,East,90,1.3,1.3,88,0.08,,,0.24,WUHU216HW,2013-06-19 21:10:00,
2013-06-19 17:15:00,74.9,71.1,29.97,NNE,23,0.0,1.3,88,0.08,,,0.24,WUHU216HW,2013-06-19 21:15:00,
2013-06-19 17:20:00,74.9,71.1,29.97,ESE,113,0.0,1.1,88,0.08,,,0.24,WUHU216HW,2013-06-19 21:20:00,
2013-06-19 17:25:00,74.9,71.1,29.96,East,90,0.9,0.9,88,0.08,,,0.24,WUHU216HW,2013-06-19 21:25:00,
2013-06-19 17:30:00,74.7,70.9,29.97,East,90,0.4,0.9,88,0.08,,,0.24,WUHU216HW,2013-06-19 21:30:00,
2013-06-19 17:35:00,74.7,70.9,29.97,East,90,0.0,0.9,88,0.08,,,0.24,WUHU216HW,2013-06-19 21:35:00,
2013-06-19 17:40:00,74.7,70.9,29.97,East,90,0.0,0.9,88,0.01,,,0.24,WUHU216HW,2013-06-19 21:40:00,
2013-06-19 17:45:00,74.7,70.9,29.98,NE,45,0.0,0.0,88,0.05,,,0.26,WUHU216HW,2013-06-19 21:45:00,
2013-06-19 17:50:00,74.7,70.9,29.97,ENE,68,0.4,0.4,88,0.13,,,0.32,WUHU216HW,2013-06-19 21:50:00,
2013-06-19 17:55:00,74.7,71.3,29.97,ENE,68,0.7,0.7,89,0.12,,,0.36,WUHU216HW,2013-06-19 21:55:00,
2013-06-19 18:00:00,74.7,71.3,29.98,ENE,68,0.0,0.7,89,0.12,,,0.36,WUHU216HW,2013-06-19 22:00:00,
2013-06-19 18:05:00,74.7,71.3,29.98,ENE,68,0.0,0.7,89,0.20,,,0.44,WUHU216HW,2013-06-19 22:05:00,
2013-06-19 18:10:00,74.7,71.3,29.98,ENE,68,0.4,0.7,89,0.20,,,0.44,WUHU216HW,2013-06-19 22:10:00,
2013-06-19 18:15:00,74.5,71.1,29.98,ENE,68,0.0,0.7,89,0.30,,,0.54,WUHU216HW,2013-06-19 22:15:00,
2013-06-19 18:20:00,74.5,71.1,29.97,NNE,23,0.0,0.7,89,0.31,,,0.55,WUHU216HW,2013-06-19 22:20:00,
2013-06-19 18:25:00,74.3,70.9,29.99,NW,315,0.4,0.4,89,0.31,,,0.55,WUHU216HW,2013-06-19 22:25:00,
2013-06-19 18:30:00,74.2,70.7,29.99,NW,315,0.7,1.1,89,0.31,,,0.55,WUHU216HW,2013-06-19 22:30:00,
2013-06-19 18:35:00,74.0,70.6,29.98,NW,315,0.2,1.1,89,0.33,,,0.55,WUHU216HW,2013-06-19 22:35:00,
2013-06-19 18:40:00,73.8,70.4,29.97,East,90,1.6,2.5,89,0.35,,,0.60,WUHU216HW,2013-06-19 22:40:00,
2013-06-19 18:45:00,73.8,70.7,29.97,East,90,0.7,2.5,90,0.31,,,0.63,WUHU216HW,2013-06-19 22:45:00,
2013-06-19 18:50:00,73.8,70.7,29.96,ENE,68,2.0,2.0,90,0.28,,,0.63,WUHU216HW,2013-06-19 22:50:00,
2013-06-19 18:55:00,73.8,70.7,29.95,ENE,68,2.5,3.8,90,0.28,,,0.64,WUHU216HW,2013-06-19 22:55:00,
2013-06-19 19:00:00,73.8,70.7,29.95,ENE,68,0.4,3.8,90,0.28,,,0.64,WUHU216HW,2013-06-19 23:00:00,
2013-06-19 19:05:00,73.8,70.7,29.95,ESE,113,1.3,3.4,90,0.20,,,0.64,WUHU216HW,2013-06-19 23:05:00,
2013-06-19 19:10:00,73.8,70.7,29.95,ENE,68,2.5,2.7,90,0.12,,,0.64,WUHU216HW,2013-06-19 23:10:00,
2013-06-19 19:15:00,73.8,71.0,29.95,East,90,1.8,2.7,91,0.10,,,0.64,WUHU216HW,2013-06-19 23:15:00,
2013-06-19 19:20:00,73.8,71.0,29.96,East,90,3.1,3.1,91,0.09,,,0.64,WUHU216HW,2013-06-19 23:20:00,
2013-06-19 19:25:00,73.8,71.0,29.97,East,90,1.8,3.1,91,0.09,,,0.64,WUHU216HW,2013-06-19 23:25:00,
2013-06-19 19:30:00,73.8,71.0,29.98,ENE,68,0.4,3.4,91,0.09,,,0.64,WUHU216HW,2013-06-19 23:30:00,
2013-06-19 19:35:00,73.8,71.0,29.98,ENE,68,0.0,3.4,91,0.07,,,0.64,WUHU216HW,2013-06-19 23:35:00,
2013-06-19 19:40:00,73.6,70.8,29.98,ENE,68,1.1,3.1,91,0.01,,,0.64,WUHU216HW,2013-06-19 23:40:00,
2013-06-19 19:45:00,73.6,70.8,29.99,East,90,0.2,3.1,91,0.01,,,0.64,WUHU216HW,2013-06-19 23:45:00,
2013-06-19 19:50:00,73.6,70.8,29.99,ENE,68,1.6,2.5,91,0.00,,,0.64,WUHU216HW,2013-06-19 23:50:00,
2013-06-19 19:55:00,73.8,71.0,30.00,East,90,0.4,1.6,91,0.00,,,0.64,WUHU216HW,2013-06-19 23:55:00,
2013-06-19 20:00:00,73.8,71.0,30.00,East,90,0.0,1.6,91,0.00,,,0.64,WUHU216HW,2013-06-20 00:00:00,
2013-06-19 20:05:00,73.8,71.0,30.01,East,90,0.0,0.9,91,0.00,,,0.64,WUHU216HW,2013-06-20 00:05:00,
2013-06-19 20:10:00,73.6,70.8,30.01,East,90,0.0,0.9,91,0.00,,,0.64,WUHU216HW,2013-06-20 00:10:00,
2013-06-19 20:15:00,73.6,70.8,30.01,East,90,0.0,0.0,91,0.00,,,0.64,WUHU216HW,2013-06-20 00:15:00,
2013-06-19 20:20:00,73.6,70.8,30.02,East,90,0.0,0.0,91,0.00,,,0.64,WUHU216HW,2013-06-20 00:20:00,
2013-06-19 20:25:00,73.6,70.8,30.02,East,90,0.0,0.2,91,0.00,,,0.64,WUHU216HW,2013-06-20 00:25:00,
2013-06-19 20:30:00,73.6,70.8,30.02,East,90,0.0,0.2,91,0.00,,,0.64,WUHU216HW,2013-06-20 00:30:00,
2013-06-19 20:35:00,73.6,70.8,30.02,East,90,0.0,0.0,91,0.00,,,0.64,WUHU216HW,2013-06-20 00:35:00,
2013-06-19 20:40:00,73.6,70.8,30.02,East,90,0.0,0.0,91,0.00,,,0.64,WUHU216HW,2013-06-20 00:40:00,
2013-06-19 20:45:00,73.6,70.8,30.03,East,90,0.0,0.0,91,0.00,,,0.64,WUHU216HW,2013-06-20 00:45:00,
2013-06-19 20:50:00,73.8,71.0,30.03,East,90,0.0,0.0,91,0.00,,,0.64,WUHU216HW,2013-06-20 00:50:00,
2013-06-19 20:55:00,73.8,71.0,30.03,East,90,0.0,0.0,91,0.00,,,0.64,WUHU216HW,2013-06-20 00:55:00,
2013-06-19 21:00:00,73.6,70.8,30.02,East,90,0.9,0.9,91,0.02,,,0.64,WUHU216HW,2013-06-20 01:00:00,
2013-06-19 21:05:00,73.6,71.2,30.02,East,90,0.0,1.1,92,0.03,,,0.68,WUHU216HW,2013-06-20 01:05:00,
2013-06-19 21:10:00,73.8,71.4,30.03,East,90,0.9,1.6,92,0.05,,,0.68,WUHU216HW,2013-06-20 01:10:00,
2013-06-19 21:15:00,73.8,71.4,30.03,East,90,1.1,1.6,92,0.06,,,0.70,WUHU216HW,2013-06-20 01:15:00,
2013-06-19 21:20:00,73.6,71.2,30.03,ENE,68,1.3,1.3,92,0.07,,,0.72,WUHU216HW,2013-06-20 01:20:00,
2013-06-19 21:25:00,73.6,71.2,30.02,ENE,68,0.0,1.3,92,0.08,,,0.72,WUHU216HW,2013-06-20 01:25:00,
2013-06-19 21:29:00,73.6,71.2,30.02,ENE,68,1.3,1.8,92,0.09,,,0.73,WUHU216HW,2013-06-20 01:29:00,
2013-06-19 21:34:00,73.6,71.2,30.02,East,90,0.0,1.8,92,0.11,,,0.75,WUHU216HW,2013-06-20 01:34:00,
2013-06-19 21:39:00,73.6,71.2,30.02,ENE,68,0.0,1.1,92,0.12,,,0.77,WUHU216HW,2013-06-20 01:39:00,
2013-06-19 21:44:00,73.6,71.2,30.03,ENE,68,0.0,0.0,92,0.13,,,0.77,WUHU216HW,2013-06-20 01:44:00,
2013-06-19 21:49:00,73.4,71.0,30.02,ENE,68,2.2,2.2,92,0.14,,,0.79,WUHU216HW,2013-06-20 01:49:00,
2013-06-19 21:54:00,73.4,71.0,30.02,ENE,68,1.8,2.7,92,0.16,,,0.81,WUHU216HW,2013-06-20 01:54:00,
2013-06-19 21:59:00,73.6,71.2,30.02,ENE,68,1.8,2.9,92,0.15,,,0.81,WUHU216HW,2013-06-20 01:59:00,
2013-06-19 22:04:00,73.6,71.2,30.02,East,90,1.8,3.8,92,0.13,,,0.82,WUHU216HW,2013-06-20 02:04:00,
2013-06-19 22:09:00,73.4,71.0,30.03,ENE,68,1.8,3.8,92,0.12,,,0.82,WUHU216HW,2013-06-20 02:09:00,
2013-06-19 22:14:00,73.4,71.0,30.03,ENE,68,2.5,2.5,92,0.11,,,0.82,WUHU216HW,2013-06-20 02:14:00,
2013-06-19 22:19:00,73.4,71.0,30.04,ENE,68,2.2,2.5,92,0.10,,,0.82,WUHU216HW,2013-06-20 02:19:00,
2013-06-19 22:24:00,73.4,71.0,30.03,ENE,68,1.6,3.1,92,0.08,,,0.82,WUHU216HW,2013-06-20 02:24:00,
2013-06-19 22:29:00,73.4,71.0,30.03,East,90,0.7,3.1,92,0.07,,,0.82,WUHU216HW,2013-06-20 02:29:00,
2013-06-19 22:34:00,73.4,71.0,30.04,ENE,68,1.1,2.0,92,0.06,,,0.82,WUHU216HW,2013-06-20 02:34:00,
2013-06-19 22:39:00,73.4,71.0,30.03,East,90,0.2,2.7,92,0.05,,,0.82,WUHU216HW,2013-06-20 02:39:00,
2013-06-19 22:44:00,73.4,71.0,30.03,NE,45,0.4,2.7,92,0.03,,,0.82,WUHU216HW,2013-06-20 02:44:00,
2013-06-19 22:49:00,73.3,70.8,30.03,ENE,68,0.0,2.5,92,0.02,,,0.82,WUHU216HW,2013-06-20 02:49:00,
2013-06-19 22:54:00,73.3,70.8,30.03,East,90,0.0,1.3,92,0.01,,,0.82,WUHU216HW,2013-06-20 02:54:00,
2013-06-19 22:59:00,73.3,70.8,30.03,ENE,68,0.2,2.7,92,0.00,,,0.82,WUHU216HW,2013-06-20 02:59:00,
2013-06-19 23:04:00,73.3,70.8,30.04,ENE,68,1.8,2.7,92,0.00,,,0.82,WUHU216HW,2013-06-20 03:04:00,
2013-06-19 23:09:00,73.3,70.8,30.04,ENE,68,0.2,1.8,92,0.00,,,0.82,WUHU216HW,2013-06-20 03:09:00,
2013-06-19 23:14:00,73.3,70.8,30.04,ENE,68,0.0,0.9,92,0.00,,,0.82,WUHU216HW,2013-06-20 03:14:00,
2013-06-19 23:19:00,73.3,70.8,30.04,ENE,68,0.0,0.4,92,0.00,,,0.82,WUHU216HW,2013-06-20 03:19:00,
2013-06-19 23:24:00,73.3,70.8,30.04,ENE,68,0.0,0.4,92,0.00,,,0.82,WUHU216HW,2013-06-20 03:24:00,
2013-06-19 23:29:00,73.3,70.8,30.03,ENE,68,0.0,0.4,92,0.00,,,0.82,WUHU216HW,2013-06-20 03:29:00,
2013-06-19 23:34:00,73.4,71.0,30.03,ENE,68,0.0,0.4,92,0.00,,,0.82,WUHU216HW,2013-06-20 03:34:00,
2013-06-19 23:39:00,73.4,71.0,30.03,ENE,68,0.0,0.2,92,0.00,,,0.82,WUHU216HW,2013-06-20 03:39:00,
2013-06-19 23:44:00,73.4,71.0,30.04,ENE,68,0.0,0.0,92,0.00,,,0.82,WUHU216HW,2013-06-20 03:44:00,
2013-06-19 23:49:00,73.4,71.0,30.03,ENE,68,0.0,0.0,92,0.00,,,0.82,WUHU216HW,2013-06-20 03:49:00,
2013-06-19 23:54:00,73.4,71.0,30.03,ENE,68,0.0,0.0,92,0.00,,,0.82,WUHU216HW,2013-06-20 03:54:00,
2013-06-19 23:59:00,73.4,71.0,30.03,ENE,68,0.0,0.0,92,0.00,,,0.82,WUHU216HW,2013-06-20 03:59:00,